Wind_Speed
51 54 55 52 44 39 40 45 47 47 47 50 52 53 53 54 52 47 45 41 42 49 50 48 50 48 45 43 38 35 36 37 35 35 36 36 37 37 38 38 36 35 34 33 34 33 34 35 35 34 34 35 34 34 34 33 33 33 33 33 33 33 34 35 37 37 37 37 38 40 40 40 40 39 38 37 36 35 35 34 34 34 34 35 36 36
52 55 54 48 42 42 45 46 47 48 50 52 53 54 54 54 51 48 47 44 44 51 51 49 50 47 45 44 41 38 36 36 34 32 32 33 35 38 38 37 35 36 35 34 34 33 35 36 36 36 35 36 36 36 37 35 35 36 35 34 35 35 36 37 38 39 38 38 39 39 39 39 39 38 37 37 36 36 35 34 35 35 36 37 38 39
53 56 51 46 45 48 49 48 49 50 52 53 53 54 54 52 51 51 49 46 48 52 51 50 51 48 45 44 42 40 37 36 35 33 30 29 32 33 34 34 34 35 35 35 35 35 38 38 37 37 37 37 39 39 38 38 38 38 37 37 37 38 38 39 39 40 41 41 40 40 39 38 38 37 37 37 36 35 35 35 36 37 38 39 40 40
54 54 48 46 49 50 50 50 51 52 53 54 53 54 54 51 52 53 52 51 51 52 52 51 51 49 47 45 43 40 36 33 34 34 31 29 28 29 29 31 32 33 34 35 36 37 40 40 38 37 38 39 40 40 40 40 40 40 40 40 39 39 39 39 40 41 42 42 41 40 40 39 38 38 38 37 36 35 36 37 38 39 40 40 40 39
54 52 48 48 49 50 51 51 52 52 53 53 53 53 53 51 52 54 55 54 53 52 52 52 51 49 48 46 42 37 34 33 34 37 35 32 31 30 29 30 33 33 33 35 36 38 40 41 40 39 40 40 41 42 42 43 42 42 42 41 40 40 40 41 41 41 42 42 41 41 41 40 39 39 38 37 36 37 38 39 40 40 40 40 39 38
53 48 47 48 48 49 51 52 50 50 52 54 53 51 51 51 53 53 53 54 54 54 53 54 54 48 46 47 41 34 35 36 36 37 36 33 33 34 31 30 32 33 34 35 35 37 40 41 42 42 42 42 43 43 43 43 42 42 41 41 41 41 42 42 42 41 41 41 41 41 41 41 40 39 38 38 38 39 39 40 41 41 40 39 39 38
52 46 45 47 49 50 51 52 48 46 51 56 54 50 48 50 52 52 53 54 54 55 54 56 57 51 46 45 43 39 39 40 39 38 36 33 32 33 32 30 31 32 33 34 35 36 37 40 41 42 43 44 44 45 45 43 41 41 41 41 41 42 43 43 42 41 40 40 40 40 41 41 41 40 40 40 41 40 40 41 42 41 41 40 40 39
50 46 45 47 49 51 52 51 47 46 52 56 53 51 50 51 52 53 54 55 55 55 55 56 59 57 49 43 45 46 45 45 42 39 37 33 30 30 31 32 31 30 31 31 33 34 36 38 40 41 43 45 46 46 45 43 42 41 41 41 42 42 42 42 42 42 41 41 41 42 42 43 42 42 42 43 43 42 43 43 43 43 42 42 41 41
50 49 48 48 50 52 51 49 49 50 54 54 53 54 54 54 54 54 55 55 56 55 55 56 57 57 50 44 47 50 50 49 45 40 38 36 34 31 31 33 33 32 29 28 29 30 34 37 40 43 44 45 46 46 45 43 42 41 40 41 42 42 42 42 43 43 43 43 43 44 45 44 44 44 45 45 45 45 45 45 45 44 43 43 42 43
51 52 51 53 53 51 50 51 52 53 54 54 54 55 56 56 55 55 55 56 57 56 54 55 55 54 50 46 48 50 51 52 49 45 43 41 41 38 33 33 35 36 33 28 27 27 30 35 39 42 44 45 46 45 45 43 42 41 41 41 42 43 43 43 43 43 43 43 44 45 45 46 47 47 47 47 47 47 47 46 46 45 44 43 44 45
50 52 53 54 53 52 52 53 53 54 54 54 54 54 55 56 55 56 57 57 59 58 53 54 52 51 50 48 48 50 53 56 54 51 50 49 49 48 42 37 35 37 38 35 33 31 29 32 37 41 43 45 46 46 45 43 42 41 41 41 42 42 42 42 43 43 43 44 44 44 45 46 47 47 48 48 48 49 48 48 47 45 44 44 46 47
47 50 51 51 51 51 52 52 52 52 52 51 51 52 53 54 55 57 58 59 61 58 53 53 52 51 53 53 53 54 54 57 57 56 56 55 54 54 52 47 41 40 41 41 41 40 36 33 34 37 41 44 46 47 47 45 43 42 42 42 41 40 40 40 41 42 44 45 45 46 47 48 48 48 49 49 48 48 48 48 47 46 45 46 47 48
46 47 47 48 48 48 49 50 50 50 49 49 50 51 52 54 56 58 60 60 61 57 54 55 55 57 60 58 57 56 54 56 59 60 62 61 59 59 58 56 53 49 46 43 41 42 43 40 37 37 39 42 43 44 45 45 44 43 43 43 42 41 41 40 41 41 42 44 45 46 47 48 49 49 49 48 47 47 47 48 48 47 48 49 49 50
49 47 46 48 47 46 48 49 49 49 49 50 52 52 53 54 57 60 60 60 60 57 56 57 59 65 66 61 60 59 57 59 61 63 66 65 64 64 63 62 61 59 55 51 45 43 43 43 43 43 42 42 42 42 42 43 44 44 43 43 43 42 43 42 42 42 42 43 45 46 47 47 48 48 47 47 47 47 48 49 49 50 51 51 51 52
55 51 48 51 51 50 51 51 50 51 52 53 53 53 54 56 57 57 56 57 58 57 57 59 64 69 69 66 66 66 65 66 67 67 67 67 66 67 67 66 65 64 61 58 53 48 46 44 44 47 47 45 45 45 44 43 43 45 45 45 45 45 45 44 44 44 44 45 46 47 48 48 49 48 48 48 48 49 50 50 51 52 53 53 53 54
62 58 54 57 60 57 57 57 55 56 57 58 58 58 60 58 55 56 57 59 60 61 64 67 71 75 74 72 73 72 71 71 70 69 68 67 68 68 67 67 66 65 64 62 59 54 52 49 47 49 51 49 48 48 48 47 46 46 47 48 48 48 48 47 47 47 47 48 48 48 49 49 50 50 50 50 50 51 52 52 53 54 54 54 55 56
62 62 59 61 64 63 62 62 61 60 60 63 64 64 63 61 59 61 65 65 63 66 70 73 77 79 77 77 75 73 72 71 69 69 69 69 70 69 67 66 66 66 65 64 62 59 57 52 46 47 50 51 50 48 47 48 48 48 47 48 49 49 49 48 49 49 50 51 50 50 50 50 51 51 51 51 52 53 54 54 56 56 56 56 57 57
60 62 61 61 64 64 64 64 64 65 65 67 67 65 64 64 64 63 63 63 63 67 71 72 75 76 75 76 76 72 69 68 67 67 67 67 67 67 67 66 65 66 66 64 64 61 56 50 44 44 47 49 50 49 47 46 47 49 48 48 48 49 49 50 52 52 53 54 54 54 53 53 53 53 53 54 55 55 56 56 58 59 59 59 59 59
66 67 64 62 64 66 66 66 67 68 68 66 63 59 57 57 59 59 60 62 64 68 71 71 71 73 73 73 73 71 68 67 66 66 66 67 65 65 66 64 63 63 63 62 60 54 48 46 45 46 48 48 48 50 50 49 50 51 51 50 48 49 50 53 54 55 55 56 56 56 56 56 56 56 56 56 57 58 58 59 61 61 62 62 62 62
71 72 70 67 68 70 70 70 70 67 62 57 53 50 49 51 55 59 63 65 66 68 70 71 72 73 72 69 67 67 67 67 67 67 67 67 65 63 63 63 61 59 58 57 55 47 41 44 49 52 54 53 50 50 51 52 52 53 54 53 51 51 53 54 55 56 56 56 57 57 57 58 58 58 58 59 60 61 61 62 63 64 64 65 65 65
76 76 76 74 73 75 74 71 68 61 53 49 50 51 53 57 61 65 69 69 69 71 73 73 74 73 68 63 61 63 65 66 65 62 60 59 60 61 61 60 59 57 55 54 55 50 45 50 57 58 57 57 55 53 53 54 53 53 54 55 54 53 54 55 56 57 57 57 57 57 57 58 58 58 59 61 62 62 63 63 64 65 66 66 67 67
72 71 71 69 68 68 65 59 56 54 51 51 56 61 64 67 68 69 73 73 73 74 74 74 76 74 65 58 57 59 61 61 56 52 52 53 56 58 58 58 59 57 55 52 51 48 48 56 60 56 53 54 56 57 56 56 56 56 56 58 58 58 57 58 59 59 59 59 59 59 59 59 59 59 61 63 64 64 64 64 65 65 66 66 67 67
66 67 69 69 68 67 63 58 57 59 61 66 72 76 76 74 70 69 71 71 70 71 71 71 76 76 65 57 55 55 56 56 54 54 56 58 59 58 57 58 58 56 52 48 45 44 50 58 59 54 51 51 53 55 56 56 57 58 58 59 61 63 62 62 61 61 62 63 62 61 61 61 61 62 63 65 66 66 65 65 65 65 66 66 66 66
70 71 73 76 77 77 75 72 72 73 75 77 79 77 74 71 67 66 66 63 62 65 65 67 74 74 66 58 54 52 52 54 56 58 61 62 62 61 60 57 53 51 48 45 43 44 48 53 56 57 56 54 54 54 53 52 54 56 58 58 59 62 63 62 61 61 62 64 64 64 64 63 62 64 65 65 66 66 66 65 65 65 65 65 65 65
72 73 74 75 77 80 80 80 79 79 78 77 75 71 69 69 68 68 66 64 66 67 64 67 71 69 62 56 54 53 53 55 56 57 60 63 63 63 61 57 53 52 51 51 50 50 50 53 58 61 61 59 58 58 55 52 52 54 56 58 59 61 62 63 63 62 62 63 64 64 64 63 62 62 62 62 63 63 63 63 63 63 63 63 64 65
73 74 74 73 75 78 81 80 79 78 77 76 75 73 72 72 73 74 74 75 80 80 77 79 79 72 65 60 56 53 52 53 53 52 54 57 59 60 59 58 59 61 61 61 61 59 58 59 61 61 59 58 58 60 61 59 57 55 56 58 60 61 63 64 64 63 62 62 63 63 62 60 58 57 57 58 58 58 58 59 59 60 60 62 63 64
74 75 76 76 75 75 78 79 77 76 77 77 77 77 76 75 75 77 79 82 85 87 89 90 89 86 83 77 71 64 59 56 53 51 51 55 61 66 65 64 66 66 66 68 69 68 68 68 66 62 60 59 59 60 62 63 62 61 61 61 61 61 61 62 63 62 61 61 62 61 59 57 55 54 54 55 55 54 55 57 58 59 60 62 63 63
74 76 76 76 75 74 76 78 78 77 78 76 73 73 73 74 75 76 80 82 81 84 89 88 86 89 89 86 83 79 76 74 73 71 72 75 79 83 82 78 74 71 71 73 73 73 73 73 71 69 67 65 65 64 64 65 66 66 66 65 63 62 62 62 63 62 61 61 60 59 58 57 56 56 56 57 57 59 61 62 63 64 65 67 67 67
75 76 75 75 76 75 75 77 76 77 78 76 74 72 71 72 74 75 79 80 79 82 85 82 80 83 84 81 80 79 78 80 83 86 90 92 93 94 93 91 89 87 86 85 84 83 82 81 80 79 78 77 76 75 73 71 71 71 70 70 69 67 66 66 66 66 64 63 61 60 60 61 61 62 63 64 66 67 69 69 70 70 71 73 73 71
72 73 73 73 74 74 74 74 73 72 74 74 72 70 70 72 75 77 80 81 81 82 81 77 76 77 75 73 73 73 72 74 77 81 85 89 91 91 90 88 87 87 86 84 84 85 86 87 87 86 85 86 86 86 84 83 81 79 78 78 76 75 73 72 71 69 68 66 64 64 65 66 68 69 71 73 74 73 72 72 73 73 74 75 74 74
67 70 72 72 74 74 72 72 72 71 72 72 71 70 70 72 74 76 76 75 76 79 79 77 78 77 74 71 70 70 70 70 72 75 78 81 83 85 85 85 84 85 85 85 84 84 85 86 87 86 85 84 84 85 85 86 87 87 85 84 82 80 78 78 76 74 73 72 71 72 74 75 76 77 78 78 77 75 74 74 75 74 75 76 75 74
66 69 69 69 72 73 70 69 68 67 66 67 67 68 70 71 71 70 69 70 73 77 77 77 79 82 83 82 79 77 77 78 79 80 81 82 83 84 84 83 83 83 83 83 82 82 82 82 82 83 81 79 79 81 81 82 84 86 85 83 82 81 79 79 78 77 76 77 77 78 80 80 79 79 78 77 76 74 75 76 76 75 77 77 75 74
66 68 67 66 69 72 70 68 67 66 68 70 70 70 70 70 70 69 69 71 74 77 79 81 84 86 88 86 83 81 79 77 75 74 73 74 77 78 77 77 75 74 74 75 76 76 76 75 75 77 77 76 77 79 80 81 82 82 82 80 78 78 77 77 76 75 74 75 77 79 79 79 77 76 75 75 75 75 76 77 76 76 78 77 75 75
67 69 71 72 76 79 78 77 77 79 83 83 80 79 78 78 78 80 81 82 83 85 88 90 92 92 90 85 83 81 76 68 63 60 59 61 64 65 65 65 66 67 68 70 72 73 72 72 72 73 74 74 74 76 78 80 80 80 80 79 77 74 73 73 72 72 72 73 75 76 76 76 76 74 74 76 77 78 78 77 77 77 78 78 76 76
69 69 71 73 77 81 80 80 84 88 88 85 83 82 82 83 83 85 88 89 90 90 91 91 91 92 89 87 86 86 83 79 75 71 69 68 68 67 67 69 72 73 74 74 74 74 74 73 73 74 75 76 76 77 78 78 78 79 79 79 78 76 73 71 71 70 71 73 74 75 75 75 75 75 76 78 80 81 80 79 78 79 79 79 77 76
71 72 73 74 76 79 79 80 85 88 85 82 83 84 83 83 84 85 87 89 90 89 89 89 90 91 90 89 89 89 88 88 88 88 88 88 87 86 86 87 88 88 88 87 86 86 85 83 81 80 79 78 77 78 78 80 81 81 81 81 81 80 78 76 75 74 75 77 78 77 76 76 77 77 77 78 80 80 80 80 80 80 81 80 79 78
73 74 75 76 77 78 79 81 84 85 83 82 82 82 82 81 81 81 82 85 86 86 86 85 85 85 84 82 81 81 81 82 82 84 87 89 90 91 91 91 92 91 91 92 93 93 93 92 92 90 88 86 85 84 84 86 87 87 87 87 84 82 81 80 79 79 79 79 80 79 78 79 79 80 80 80 81 82 82 82 82 82 82 82 81 78
74 74 74 76 76 76 77 79 81 81 81 80 78 77 77 75 74 74 75 74 72 69 69 72 73 74 74 73 71 71 71 71 71 71 72 73 74 76 77 78 80 82 83 85 86 88 89 91 91 90 89 89 91 90 90 90 90 89 88 87 84 82 80 78 77 76 77 78 78 78 78 79 81 81 81 80 81 81 81 81 81 81 80 78 76 74
72 72 72 73 75 74 74 76 78 78 78 78 76 76 76 76 76 77 78 77 73 68 67 71 74 75 74 73 71 69 67 67 64 61 60 61 62 62 63 64 66 68 70 71 72 74 76 78 78 78 79 80 83 87 90 90 88 87 85 83 81 78 77 75 73 73 73 74 75 76 77 79 82 83 83 81 80 79 79 78 76 75 73 71 70 69
71 70 71 72 73 73 73 75 77 77 78 78 77 77 78 78 79 80 81 83 83 82 82 85 86 87 86 84 81 78 75 74 69 62 58 59 59 60 59 59 59 61 63 65 66 64 63 64 67 69 72 73 74 77 82 83 83 81 78 76 75 74 73 72 71 71 72 73 74 76 78 79 81 83 84 85 84 83 81 79 77 74 71 70 70 70
69 69 70 71 71 71 72 74 76 76 76 76 76 76 77 77 78 79 82 84 84 86 88 91 92 92 92 92 91 90 89 89 86 80 75 72 73 74 72 69 65 62 61 64 66 65 65 68 69 70 71 72 72 72 74 75 76 74 71 70 70 71 71 70 69 69 69 72 74 76 77 79 81 82 84 85 85 85 83 82 80 78 77 77 77 76
68 68 68 69 69 70 71 72 74 75 74 73 73 74 75 76 77 78 81 83 84 86 88 90 91 92 93 93 94 95 95 96 98 97 94 92 93 94 92 90 87 83 80 79 79 79 81 82 81 79 78 78 79 78 76 76 75 74 72 69 69 70 71 71 71 71 71 72 73 75 77 78 79 80 82 83 84 85 84 84 84 84 83 83 81 78
66 67 68 68 68 69 70 72 73 73 72 71 71 71 71 73 75 77 79 81 83 84 86 87 89 91 92 94 94 95 96 97 98 100 101 102 103 104 103 102 101 99 98 97 97 97 97 96 94 91 88 85 85 85 85 84 82 80 77 74 72 73 74 75 76 75 75 74 74 75 76 76 76 76 78 79 81 82 83 84 83 82 81 79 76 73
65 66 67 67 68 69 71 72 71 71 69 68 69 69 70 71 73 75 77 79 80 82 83 84 86 87 89 91 93 94 95 96 97 98 99 100 102 105 106 107 107 107 105 104 103 103 103 103 100 97 93 89 89 89 90 90 89 88 85 80 76 75 77 80 82 82 81 79 76 75 75 75 74 73 73 75 77 79 79 80 79 78 77 76 74 72
64 64 66 68 68 69 71 71 69 68 68 66 67 68 70 71 72 74 76 77 78 80 81 82 83 84 85 88 90 91 92 93 94 95 96 97 98 100 102 105 108 110 111 109 107 105 103 101 100 98 97 96 93 90 88 88 90 90 88 85 80 78 79 81 84 86 86 83 79 77 76 76 74 73 72 73 75 77 78 79 78 75 74 74 75 74
63 63 65 67 67 68 69 68 66 66 66 65 65 66 67 69 69 71 73 74 75 77 78 79 80 81 82 84 86 88 89 90 91 92 93 94 95 95 97 99 101 104 107 108 109 108 106 104 101 98 96 95 92 91 90 90 88 87 88 89 87 85 86 88 88 88 88 87 83 81 79 77 76 75 75 75 75 76 78 78 77 75 73 73 73 72
61 61 64 65 66 68 68 65 64 64 64 64 64 65 64 65 66 67 70 72 73 74 75 77 78 78 79 81 83 85 86 87 89 90 91 92 93 93 94 95 96 98 99 101 103 105 106 106 105 102 98 94 91 91 93 93 91 89 91 93 94 92 93 95 95 93 91 88 85 82 80 78 76 76 76 76 75 75 76 76 75 74 71 70 68 68
59 61 64 64 65 66 67 65 63 63 62 61 62 63 63 63 64 65 67 69 70 72 73 74 75 76 77 78 80 82 84 85 86 87 88 89 90 91 92 93 94 96 96 97 99 100 101 103 104 104 102 98 94 92 93 94 95 94 91 92 94 95 96 96 96 96 92 86 82 80 79 78 76 75 75 75 75 75 76 76 74 72 70 69 68 67
59 62 63 62 62 64 65 63 61 59 59 58 59 60 61 62 62 63 65 66 67 68 69 69 70 72 73 75 76 78 80 81 82 83 85 86 86 87 89 90 92 93 94 95 97 98 99 100 101 101 102 100 98 96 94 94 96 97 95 92 91 94 96 95 94 93 89 84 81 80 79 78 76 75 75 75 76 77 78 78 77 75 72 71 70 69
59 61 59 59 62 64 63 60 56 55 57 58 58 59 59 59 59 60 61 62 62 63 64 65 66 67 68 70 72 74 76 77 78 79 81 82 82 83 84 85 87 88 89 91 92 94 95 97 99 100 100 99 99 99 98 96 95 97 100 100 97 94 93 91 89 89 88 86 84 83 81 80 78 77 77 77 78 80 81 82 82 80 77 75 74 73
58 59 58 58 61 61 59 56 53 53 56 57 57 57 57 57 57 57 57 57 58 60 62 63 64 65 66 66 68 70 72 73 74 76 78 78 79 79 80 81 82 83 84 85 86 88 89 91 94 96 97 97 98 99 100 99 97 96 100 104 104 101 98 94 90 87 86 87 86 85 84 84 83 81 80 81 82 83 84 85 84 83 81 80 79 77
Wind_Direction
271 271 272 275 281 284 279 275 275 277 279 279 280 281 283 284 286 290 292 292 293 287 282 283 283 284 286 288 288 285 282 280 280 280 279 277 276 273 271 272 274 275 275 274 273 272 272 271 270 269 268 269 270 269 267 266 266 266 267 268 268 266 266 267 268 269 270 271 271 269 268 267 265 264 263 265 266 266 266 266 266 267 268 269 271 272
270 271 273 277 281 277 272 272 274 276 276 277 278 280 281 283 286 289 289 291 289 284 283 285 284 285 287 288 289 289 289 290 290 286 282 279 275 273 273 275 275 273 273 272 272 271 271 272 271 269 267 266 266 265 265 264 264 264 265 266 266 265 264 265 266 268 270 271 270 268 266 265 263 263 263 265 266 266 266 267 268 268 269 271 272 273
272 272 274 276 274 271 271 273 274 274 274 275 277 279 280 283 286 285 286 287 284 281 284 286 285 285 285 286 288 290 292 295 294 290 285 279 275 277 280 281 277 274 271 270 269 269 271 272 272 270 267 266 265 265 265 265 265 264 264 264 264 263 264 265 267 269 270 270 268 266 265 263 262 261 262 263 264 265 266 266 267 268 270 271 272 273
273 273 274 273 271 271 272 273 273 273 273 274 276 278 279 282 285 283 283 283 281 281 283 285 285 283 284 284 286 289 293 295 295 293 289 285 285 288 288 286 282 276 270 267 266 268 270 271 271 269 268 267 267 268 267 266 265 264 264 263 263 264 265 266 267 268 269 268 267 264 263 261 260 259 260 262 263 264 265 266 268 270 271 272 272 272
272 274 274 272 272 273 272 272 272 272 273 274 276 277 278 281 282 281 282 284 282 281 283 284 282 280 283 283 282 288 292 291 290 290 291 294 296 295 292 289 287 283 276 270 265 265 267 268 269 269 270 269 269 269 268 268 267 266 265 265 265 265 265 266 266 267 268 267 265 263 262 261 260 259 260 261 261 262 264 267 270 272 272 272 271 271
270 273 274 274 274 273 272 272 272 273 274 275 275 275 277 278 279 279 281 282 282 283 283 284 281 279 281 282 285 291 289 285 284 285 289 294 297 296 295 292 289 286 283 277 270 264 264 265 267 269 270 271 271 270 269 268 268 268 268 267 267 266 265 265 265 266 266 266 265 264 262 261 260 259 259 259 260 263 266 269 271 271 270 269 269 270
269 272 273 273 273 272 272 272 273 275 275 275 276 276 276 277 277 278 279 279 280 282 283 283 282 280 278 281 290 294 289 284 283 286 290 294 295 295 296 294 290 287 284 280 276 272 268 266 267 269 271 272 273 272 271 270 269 269 270 270 269 269 269 268 267 267 267 265 263 262 261 260 259 259 259 260 263 266 268 269 269 268 267 266 267 269
269 270 269 269 270 271 272 274 276 275 275 276 278 278 277 276 276 276 277 278 279 279 280 280 282 283 283 286 295 295 289 285 287 291 294 295 295 291 292 295 293 288 285 283 281 278 275 272 271 271 272 273 273 272 271 271 271 271 272 273 273 273 272 272 270 269 267 264 261 259 258 258 259 260 261 262 265 267 268 268 268 267 265 266 268 270
270 268 268 268 268 269 272 274 274 273 274 276 277 277 277 277 276 277 277 278 278 277 276 276 280 286 288 289 294 292 288 290 294 296 297 299 298 291 291 295 294 290 284 282 282 280 278 276 274 273 273 273 272 272 271 271 272 274 275 275 275 274 273 272 272 270 268 265 262 260 259 260 261 262 263 265 267 268 269 270 269 268 268 269 271 273
268 268 268 268 268 269 271 271 271 271 273 274 274 275 277 277 278 278 278 277 277 275 275 278 283 289 289 284 285 285 288 293 297 300 302 303 300 296 294 293 292 291 286 280 276 275 276 275 274 273 274 274 274 273 273 273 274 276 277 276 275 273 272 272 272 271 270 267 264 262 262 263 264 265 267 269 271 272 273 272 271 271 272 273 275 276
266 266 266 267 268 269 269 268 269 270 271 271 273 274 274 275 276 276 275 275 274 274 277 281 283 287 286 281 280 286 291 295 298 302 303 301 300 299 298 295 291 290 289 286 281 276 273 270 270 271 272 273 274 275 275 276 276 276 276 275 274 273 273 273 272 271 270 269 267 266 266 266 267 268 270 272 273 274 275 274 274 274 275 276 277 278
265 264 264 265 266 267 268 269 269 269 270 270 271 271 271 272 273 273 274 273 273 275 281 282 281 282 280 278 282 288 293 296 300 301 300 300 300 299 298 297 293 288 285 285 284 283 280 273 269 270 271 272 274 275 276 276 277 276 275 274 273 273 273 273 272 271 270 269 268 268 268 269 270 271 272 273 274 275 275 275 275 276 277 278 278 280
264 264 265 266 266 268 269 270 270 269 270 269 268 268 269 270 271 271 272 272 272 276 280 280 279 277 275 276 281 286 290 294 296 296 296 298 299 298 297 296 294 290 285 282 281 280 281 281 280 278 277 277 277 277 277 276 275 274 273 272 272 272 272 272 272 272 272 271 271 270 270 271 271 272 273 274 274 274 275 275 276 277 278 279 280 281
267 265 267 270 270 270 271 272 272 271 270 269 269 269 269 269 270 271 271 272 274 277 277 275 274 275 277 280 282 285 287 289 289 289 291 294 295 295 295 294 293 291 288 285 282 275 273 278 283 285 284 283 282 280 278 275 274 274 273 272 270 270 270 270 270 271 272 272 272 272 272 272 272 272 272 273 273 273 274 275 277 278 279 280 281 282
271 266 266 272 273 272 273 275 276 275 273 272 273 272 272 273 275 276 276 276 277 275 273 270 270 274 278 281 283 284 286 286 287 287 288 290 291 292 292 292 292 292 290 288 285 280 273 270 275 281 285 286 284 281 278 274 271 272 273 273 272 271 271 271 271 271 270 270 269 269 270 270 271 271 271 271 272 273 274 275 276 277 278 279 280 280
274 269 267 272 275 275 276 276 277 277 276 275 274 274 275 278 280 280 279 278 277 274 271 270 272 274 278 279 281 283 285 286 287 288 289 289 289 289 289 289 289 290 290 290 289 287 283 278 274 275 280 284 283 281 278 277 274 272 271 271 272 272 273 274 273 272 271 269 268 267 267 267 268 268 268 269 270 271 271 272 273 275 276 276 277 277
275 273 270 272 275 276 277 277 277 277 277 276 275 275 278 280 280 279 278 277 275 273 271 271 273 275 277 278 279 280 282 284 286 287 288 288 287 287 287 287 287 286 287 288 289 290 289 288 282 276 276 278 279 278 277 277 276 274 272 270 269 270 271 272 271 270 269 268 268 268 267 267 267 267 267 267 268 268 269 271 272 273 274 275 276 277
274 274 272 273 275 275 276 277 276 277 277 278 277 278 279 279 277 276 276 276 274 273 273 273 273 274 276 276 278 280 282 283 284 284 283 283 284 285 285 285 284 283 284 285 288 289 288 286 281 277 276 275 274 274 274 273 272 271 271 270 269 268 267 267 267 266 266 267 267 267 267 268 268 268 268 268 268 269 270 272 273 274 275 276 277 278
276 277 274 271 273 275 276 276 277 278 279 279 279 277 274 272 272 273 273 274 275 275 276 276 275 274 274 276 279 282 283 283 282 281 281 281 282 283 282 282 280 280 281 283 287 289 284 279 277 277 280 280 275 272 270 268 267 268 268 267 266 265 263 262 263 263 263 264 264 265 265 266 266 266 267 268 269 269 270 271 272 273 274 275 276 278
279 280 278 274 273 275 276 276 278 280 279 276 272 268 265 265 268 272 273 274 275 276 276 277 276 275 276 277 278 280 281 281 281 281 281 281 282 280 278 279 279 280 282 283 285 282 271 270 278 281 282 283 280 275 271 267 265 265 266 266 263 261 260 259 260 260 260 260 261 262 263 264 265 266 266 267 268 269 269 270 272 273 274 275 276 277
281 282 283 280 276 275 276 277 279 277 272 265 264 266 269 272 274 276 276 276 277 278 279 278 277 276 277 278 278 279 280 281 282 281 280 278 276 274 274 276 278 280 284 284 284 281 268 267 278 283 282 281 279 276 272 268 263 260 260 263 264 262 259 258 257 257 257 258 258 259 261 263 264 265 267 268 268 270 270 271 272 273 274 274 275 276
282 283 284 282 279 277 277 276 273 268 262 263 268 272 276 279 280 278 278 279 281 281 281 279 277 275 277 279 280 280 280 279 277 275 274 273 272 271 272 274 276 279 281 280 280 278 271 271 279 282 279 278 276 274 272 268 266 261 257 258 260 261 260 259 258 258 257 257 257 258 259 261 263 265 267 269 270 270 271 272 273 273 274 274 275 276
278 277 277 277 276 275 273 269 265 264 265 268 271 275 278 280 281 280 280 283 282 279 276 274 273 273 275 280 281 279 275 271 267 266 269 269 269 270 271 272 275 275 273 271 271 269 267 271 276 277 275 274 273 273 272 269 267 265 262 259 260 261 262 260 260 260 260 259 258 258 259 260 262 264 266 268 269 270 271 271 272 273 274 274 275 275
275 274 273 274 274 273 272 270 268 269 271 272 273 276 278 279 279 278 279 280 276 272 270 270 270 271 273 277 275 271 266 263 261 263 264 264 264 266 268 269 269 267 265 265 268 269 267 268 271 273 275 275 273 272 270 268 266 264 263 262 261 262 263 263 262 262 262 262 262 261 261 261 262 264 266 267 267 268 269 270 271 272 274 275 275 275
273 273 274 274 274 274 274 274 273 274 275 275 275 275 273 273 273 274 275 275 273 272 271 271 270 270 272 273 268 263 260 258 257 257 258 259 259 260 263 265 263 263 263 264 266 268 268 269 272 275 275 274 272 270 268 266 266 264 263 262 261 261 262 263 263 263 262 263 264 264 265 265 266 266 267 268 268 268 269 270 271 273 274 274 275 275
273 273 273 273 273 275 275 276 276 277 276 275 274 273 271 270 270 270 271 271 272 272 272 272 272 273 273 271 266 262 258 255 253 251 253 256 258 257 258 262 265 266 265 265 266 267 269 271 273 274 273 270 269 268 267 266 265 263 261 261 262 262 262 262 263 263 262 263 264 265 266 267 267 268 269 270 270 271 271 272 273 275 275 275 275 275
272 272 272 272 272 273 275 276 277 277 276 275 275 275 275 273 272 272 270 269 271 272 272 271 273 275 275 273 270 267 263 260 257 253 253 256 261 263 262 264 266 266 265 267 268 269 270 272 272 272 271 269 267 265 265 265 264 264 263 264 264 264 263 262 262 262 262 262 263 265 265 265 266 266 268 269 271 273 274 276 277 278 278 278 278 278
270 270 271 271 271 272 274 275 276 275 274 274 274 275 275 275 274 273 271 271 273 273 272 273 274 275 275 275 273 272 269 268 266 264 263 263 264 265 266 265 265 265 265 267 268 268 269 270 271 271 271 270 269 267 266 264 264 264 265 266 264 262 260 260 260 261 261 261 262 263 264 263 263 264 267 269 272 276 278 279 279 278 278 278 278 277
270 270 271 271 271 272 272 272 273 272 272 272 272 272 272 272 271 271 272 273 274 273 274 277 277 276 276 276 275 274 272 269 268 267 267 268 268 268 268 268 269 269 269 269 268 268 268 269 269 270 270 270 271 270 269 267 266 266 266 265 264 262 261 260 260 260 260 260 261 261 261 262 264 267 270 273 276 278 279 278 277 276 276 276 275 273
270 271 272 272 272 272 271 271 270 270 270 270 271 271 270 269 270 270 271 272 272 273 275 276 275 274 276 277 276 275 273 270 269 268 268 268 269 270 271 271 272 272 272 271 269 269 269 269 270 270 269 269 269 270 270 269 268 268 267 267 266 265 265 264 263 263 262 262 262 262 263 265 268 271 274 277 278 278 277 275 273 273 273 272 270 269
270 272 273 274 275 274 273 273 272 271 270 270 268 268 268 268 269 269 269 270 270 271 272 271 272 274 275 274 273 273 273 273 272 272 271 270 270 270 271 272 272 272 272 271 270 268 267 267 267 268 268 269 269 269 269 269 269 268 267 267 267 267 267 267 267 267 266 266 265 266 267 270 272 274 276 278 278 276 274 272 271 271 270 268 266 264
271 274 275 276 276 275 275 275 275 275 273 269 268 268 268 268 268 267 267 268 268 270 271 271 272 274 275 274 274 274 275 276 276 276 276 275 273 273 272 272 272 272 271 270 268 267 266 264 264 264 265 266 268 268 268 267 267 267 267 266 267 268 269 270 270 270 270 269 269 269 271 272 274 275 276 276 275 273 271 269 269 269 268 265 263 262
269 270 271 271 271 272 272 272 273 272 268 265 267 270 269 266 265 265 266 267 268 270 272 272 273 275 277 277 277 277 278 279 278 277 276 275 273 272 272 270 269 268 268 267 267 267 265 264 263 263 263 264 264 265 266 266 266 266 267 267 267 268 270 271 272 272 272 272 272 272 273 274 274 274 273 271 269 268 267 267 268 268 266 264 262 261
267 267 267 267 268 269 270 270 270 269 267 268 271 272 270 268 268 268 268 269 269 270 272 273 274 275 276 275 275 276 277 276 273 270 270 270 269 268 266 264 263 264 264 265 265 265 265 264 263 263 263 262 261 261 262 263 264 265 266 267 268 269 269 270 271 272 272 272 273 273 274 274 273 271 267 265 264 264 265 266 266 266 265 263 262 261
270 269 268 268 268 269 270 270 270 269 270 273 274 273 272 271 271 271 271 272 272 273 273 274 275 276 275 274 274 274 273 272 270 268 267 267 266 265 263 263 264 265 265 264 263 263 264 264 264 264 264 263 261 261 261 262 263 263 263 264 265 267 268 270 270 271 271 271 271 272 271 271 270 267 264 261 259 259 260 261 262 262 263 263 262 262
272 271 270 270 269 270 271 270 270 272 273 274 274 273 273 273 273 273 274 274 273 274 274 274 275 276 276 275 275 274 272 271 270 269 269 268 268 268 267 267 267 267 266 265 264 264 264 263 264 264 263 262 261 262 263 264 264 264 263 263 264 264 265 266 268 269 269 269 269 269 269 268 267 265 263 261 259 258 259 259 260 260 262 263 264 264
272 271 271 270 270 271 271 271 272 274 274 273 273 274 274 274 274 274 275 275 275 275 275 275 274 275 275 276 276 275 274 273 271 270 270 270 270 270 269 269 268 267 266 265 264 264 264 264 264 264 262 260 260 262 264 264 264 265 265 266 266 264 263 262 262 263 263 264 265 266 266 266 265 263 262 261 260 260 259 258 258 260 261 263 264 265
272 272 272 272 272 272 272 273 273 274 274 274 275 275 275 275 274 274 274 275 276 275 274 273 273 273 274 275 275 274 273 272 271 270 269 269 269 270 271 270 269 268 266 264 263 263 263 264 264 265 264 263 261 261 262 263 263 264 265 265 265 264 263 262 259 258 258 259 261 262 263 263 263 261 260 259 259 258 257 256 257 258 260 262 264 267
272 272 272 272 272 272 273 273 273 274 274 275 275 275 275 275 274 273 273 273 272 270 268 268 270 272 273 273 272 271 270 269 267 265 265 267 268 269 271 272 272 270 268 265 263 261 261 263 264 265 266 266 262 260 260 261 262 262 262 263 263 263 263 261 259 256 256 257 258 259 260 261 262 262 262 263 262 262 261 262 262 263 264 266 269 271
271 272 272 272 272 273 273 272 272 272 273 274 274 274 274 273 273 273 272 272 271 269 268 269 269 270 270 270 268 268 268 268 266 262 261 262 265 268 271 273 274 273 271 269 267 264 262 263 265 265 265 264 262 259 258 258 257 258 259 261 262 262 262 261 260 258 256 256 256 257 259 260 261 262 263 265 266 267 268 269 270 271 272 273 274 275
271 271 271 271 272 273 272 272 272 272 272 273 273 274 273 273 272 271 271 271 270 269 269 269 269 269 269 268 267 266 266 266 265 263 261 261 264 267 269 269 269 268 266 265 265 264 264 266 266 264 262 262 262 261 260 258 254 254 258 261 263 263 262 261 260 260 259 258 258 258 258 260 261 261 262 263 265 268 270 271 272 274 275 275 276 276
273 272 272 272 272 272 271 271 271 271 272 273 273 273 274 273 271 270 270 270 269 268 268 268 269 269 269 268 267 266 265 264 264 264 263 262 264 266 267 268 267 266 264 264 264 265 267 268 268 267 267 266 265 265 265 262 259 257 259 262 263 264 264 263 261 261 260 260 259 259 259 260 261 263 264 264 265 266 267 269 271 272 274 274 275 274
275 274 274 275 274 273 272 271 271 272 274 275 274 274 273 273 272 271 270 269 268 268 268 268 268 268 269 268 268 267 267 266 265 264 264 263 263 265 266 267 269 269 268 268 268 268 269 269 270 270 271 270 270 270 270 268 266 263 262 264 265 266 266 264 263 262 262 261 260 259 259 260 261 263 264 266 267 267 267 268 269 271 272 273 272 271
276 276 277 276 274 274 273 273 274 276 277 277 276 275 274 272 272 271 270 270 270 270 269 269 269 269 269 269 269 268 268 268 267 267 266 265 264 264 264 265 266 268 269 269 270 270 270 270 270 270 270 270 271 272 272 272 271 269 268 269 268 267 266 264 263 263 262 261 259 258 258 259 260 261 262 264 266 267 267 269 269 269 269 269 269 269
277 277 277 275 275 275 275 276 278 279 279 278 277 277 275 274 273 272 272 272 272 272 271 271 271 271 271 271 271 271 271 270 270 269 269 268 267 266 265 264 264 264 266 267 268 268 268 269 269 268 268 268 269 270 269 268 269 269 270 270 269 267 266 265 264 263 261 260 258 257 257 258 259 259 260 261 263 265 267 269 270 268 267 266 267 268
276 276 275 275 276 276 277 279 281 280 279 278 278 277 276 276 275 275 274 274 274 274 274 274 274 273 273 273 273 273 273 273 272 272 271 271 270 269 268 267 266 265 265 266 267 267 267 267 267 267 267 266 266 266 266 265 264 263 265 269 270 268 268 268 266 263 261 259 257 255 255 255 256 257 258 260 262 264 265 267 268 267 266 265 265 266
275 275 274 275 277 278 278 279 280 279 279 279 278 277 276 276 276 276 276 276 276 276 276 276 276 276 275 275 275 275 275 275 275 274 274 273 273 272 271 270 270 269 268 267 267 267 267 267 266 266 266 265 263 261 260 261 261 260 262 266 269 268 266 266 265 262 259 258 256 254 252 252 254 256 258 259 261 262 262 263 264 264 264 263 261 261
275 275 276 278 279 279 279 279 279 279 279 278 277 277 276 276 276 276 276 276 277 277 277 277 277 277 276 276 276 276 276 276 276 276 276 275 275 275 274 273 272 272 271 270 269 269 268 268 267 266 266 265 263 260 257 257 258 258 258 259 261 262 261 259 257 256 256 256 255 254 252 252 254 257 259 259 260 260 259 257 257 258 259 259 258 257
277 277 280 282 281 279 280 281 281 280 279 278 278 278 278 278 277 277 277 278 278 278 278 278 278 278 278 278 278 278 278 278 278 279 278 278 277 277 276 275 275 274 273 272 271 271 270 269 268 268 267 265 264 262 260 258 257 256 254 253 253 253 252 250 249 251 253 254 254 254 254 254 256 259 260 261 261 260 258 254 252 252 253 254 254 254
281 281 282 282 280 280 281 282 284 286 284 282 281 280 281 282 282 281 281 281 280 280 280 279 279 279 279 280 280 281 281 281 281 281 281 280 280 279 278 278 277 276 275 275 274 273 272 271 270 269 268 267 266 264 263 261 258 256 254 254 254 250 246 244 245 247 248 250 251 251 251 252 255 257 259 260 260 260 258 256 253 251 251 251 250 250
283 282 282 281 281 283 284 285 288 289 288 286 285 285 286 286 286 286 286 285 285 284 283 282 281 281 281 282 283 284 285 285 284 284 284 283 282 282 281 281 280 279 278 277 277 276 275 273 272 271 270 268 267 266 264 263 261 258 255 255 255 254 250 248 248 248 247 245 245 247 249 251 253 255 256 257 258 258 257 256 254 252 251 249 247 245
Height
5807 5804 5802 5806 5813 5815 5811 5806 5802 5802 5802 5798 5796 5793 5793 5791 5791 5796 5798 5798 5798 5785 5781 5784 5780 5778 5781 5783 5788 5791 5790 5790 5792 5792 5791 5790 5789 5787 5786 5786 5787 5786 5786 5787 5785 5783 5782 5781 5781 5780 5780 5779 5779 5778 5777 5778 5777 5777 5776 5776 5776 5776 5776 5776 5775 5775 5774 5774 5773 5772 5772 5772 5771 5771 5772 5772 5772 5772 5772 5772 5772 5772 5772 5772 5772 5772
5802 5798 5799 5806 5810 5807 5802 5800 5799 5799 5797 5793 5791 5789 5788 5787 5787 5791 5792 5793 5792 5779 5773 5778 5774 5773 5777 5778 5781 5785 5785 5786 5787 5787 5786 5785 5783 5781 5781 5782 5783 5782 5782 5782 5781 5779 5777 5776 5776 5775 5775 5775 5774 5773 5772 5773 5773 5772 5772 5772 5771 5771 5771 5771 5770 5769 5769 5769 5768 5767 5767 5766 5766 5767 5768 5768 5768 5767 5767 5768 5768 5768 5768 5767 5767 5766
5797 5793 5798 5803 5801 5798 5796 5797 5796 5793 5791 5789 5788 5786 5783 5785 5784 5783 5786 5787 5784 5775 5770 5772 5767 5766 5771 5773 5775 5779 5782 5782 5781 5781 5781 5780 5778 5778 5778 5779 5779 5778 5778 5777 5776 5774 5772 5770 5770 5770 5770 5770 5769 5769 5768 5768 5767 5767 5767 5767 5766 5766 5765 5765 5765 5764 5764 5763 5763 5762 5762 5762 5762 5763 5763 5763 5763 5763 5763 5763 5763 5763 5762 5762 5762 5761
5789 5789 5795 5796 5793 5792 5792 5792 5790 5787 5786 5785 5784 5782 5780 5783 5781 5776 5777 5778 5777 5772 5767 5767 5762 5758 5764 5768 5770 5775 5777 5778 5777 5775 5776 5776 5776 5776 5776 5774 5773 5773 5773 5772 5771 5769 5766 5765 5765 5765 5765 5764 5764 5763 5763 5762 5762 5761 5761 5761 5761 5760 5760 5760 5760 5759 5758 5758 5758 5758 5758 5757 5757 5758 5758 5758 5759 5759 5758 5758 5758 5757 5757 5757 5756 5756
5783 5786 5789 5789 5787 5787 5786 5785 5784 5781 5781 5781 5780 5779 5777 5779 5777 5772 5770 5769 5769 5768 5766 5765 5756 5751 5756 5760 5764 5772 5774 5773 5773 5770 5771 5774 5774 5773 5773 5770 5768 5767 5767 5766 5766 5764 5761 5759 5759 5759 5759 5759 5758 5758 5757 5756 5756 5757 5756 5756 5757 5756 5756 5755 5755 5754 5753 5753 5753 5753 5753 5753 5753 5753 5753 5754 5754 5753 5753 5753 5752 5752 5752 5751 5751 5751
5780 5783 5783 5783 5782 5781 5779 5778 5778 5777 5776 5776 5775 5775 5775 5774 5771 5769 5767 5763 5760 5760 5761 5761 5753 5747 5749 5752 5758 5767 5768 5767 5767 5766 5768 5771 5770 5768 5768 5767 5764 5763 5761 5760 5760 5759 5757 5755 5754 5753 5753 5753 5752 5752 5751 5751 5751 5751 5752 5752 5752 5752 5751 5750 5750 5749 5749 5748 5748 5748 5748 5748 5748 5748 5748 5748 5748 5747 5748 5748 5747 5747 5746 5746 5745 5745
5776 5780 5779 5777 5776 5774 5773 5773 5774 5773 5770 5769 5769 5771 5771 5769 5767 5765 5763 5760 5757 5755 5754 5753 5750 5745 5744 5747 5754 5759 5759 5758 5760 5761 5764 5766 5766 5764 5763 5763 5762 5759 5757 5755 5755 5754 5753 5752 5751 5749 5748 5747 5747 5746 5746 5746 5746 5746 5746 5746 5746 5746 5746 5746 5745 5745 5744 5744 5743 5743 5743 5742 5742 5743 5743 5742 5742 5742 5743 5742 5742 5742 5741 5740 5740 5739
5772 5774 5773 5772 5770 5768 5767 5769 5770 5768 5763 5763 5765 5765 5764 5763 5763 5761 5759 5757 5754 5752 5749 5746 5745 5743 5741 5744 5748 5748 5748 5748 5752 5756 5757 5759 5761 5760 5758 5758 5757 5756 5754 5752 5751 5751 5750 5748 5747 5746 5744 5743 5742 5741 5740 5741 5741 5741 5741 5741 5740 5740 5740 5740 5740 5740 5740 5739 5739 5738 5737 5737 5737 5738 5737 5737 5737 5737 5737 5737 5736 5736 5735 5735 5734 5734
5767 5766 5767 5766 5764 5764 5764 5765 5764 5760 5757 5759 5760 5757 5756 5756 5756 5756 5755 5753 5750 5748 5745 5741 5742 5743 5743 5743 5742 5738 5737 5739 5745 5749 5751 5752 5754 5755 5755 5752 5751 5751 5751 5750 5748 5747 5746 5745 5743 5741 5740 5738 5737 5736 5736 5736 5736 5736 5736 5735 5735 5734 5734 5734 5734 5734 5734 5734 5734 5733 5733 5733 5733 5732 5732 5732 5732 5732 5732 5732 5731 5731 5730 5730 5729 5729
5761 5760 5760 5758 5758 5759 5760 5759 5756 5754 5753 5754 5753 5751 5750 5749 5749 5749 5748 5747 5746 5743 5740 5739 5741 5743 5741 5739 5737 5733 5732 5733 5737 5741 5743 5745 5745 5747 5750 5750 5746 5744 5744 5746 5745 5744 5743 5741 5738 5737 5735 5733 5732 5731 5731 5731 5732 5731 5731 5729 5729 5728 5728 5728 5728 5728 5729 5729 5729 5729 5729 5729 5728 5728 5728 5728 5728 5728 5727 5727 5726 5726 5726 5725 5725 5724
5755 5754 5753 5752 5752 5753 5752 5750 5750 5749 5748 5747 5747 5746 5744 5743 5742 5741 5740 5740 5738 5737 5739 5739 5740 5741 5737 5732 5730 5730 5730 5729 5731 5734 5735 5735 5736 5737 5740 5744 5744 5740 5737 5738 5738 5738 5739 5737 5734 5732 5730 5728 5726 5726 5725 5726 5726 5725 5725 5724 5723 5723 5723 5723 5722 5723 5723 5723 5723 5724 5724 5723 5723 5724 5724 5723 5723 5723 5722 5721 5721 5721 5721 5720 5719 5718
5748 5747 5747 5747 5746 5745 5744 5743 5744 5743 5742 5741 5741 5740 5737 5736 5735 5733 5732 5732 5729 5731 5737 5736 5735 5737 5732 5726 5727 5729 5729 5726 5726 5727 5726 5727 5728 5727 5729 5733 5737 5737 5734 5732 5731 5730 5730 5730 5730 5727 5725 5724 5723 5721 5721 5720 5720 5719 5718 5718 5717 5717 5717 5716 5716 5716 5716 5717 5717 5717 5717 5717 5717 5718 5717 5717 5717 5717 5716 5715 5715 5715 5715 5714 5713 5713
5742 5742 5741 5741 5741 5741 5739 5737 5737 5737 5736 5735 5734 5733 5730 5729 5728 5725 5724 5723 5722 5729 5734 5730 5728 5727 5723 5723 5726 5729 5729 5727 5724 5721 5719 5720 5720 5720 5720 5721 5724 5727 5727 5728 5728 5726 5722 5721 5722 5722 5720 5719 5718 5717 5717 5716 5715 5713 5712 5712 5711 5711 5711 5710 5710 5710 5710 5710 5710 5710 5710 5710 5710 5711 5711 5711 5710 5710 5709 5709 5708 5708 5707 5707 5707 5706
5735 5737 5737 5735 5735 5736 5733 5731 5730 5730 5730 5728 5727 5726 5723 5722 5720 5716 5717 5716 5717 5725 5726 5722 5719 5716 5716 5721 5723 5725 5727 5725 5723 5720 5716 5715 5714 5712 5712 5711 5711 5714 5716 5718 5721 5722 5719 5716 5713 5713 5713 5712 5712 5712 5712 5711 5710 5708 5707 5706 5706 5705 5704 5704 5704 5704 5703 5703 5703 5703 5703 5703 5703 5703 5703 5703 5703 5702 5702 5701 5701 5700 5699 5699 5699 5699
5725 5729 5733 5729 5727 5729 5727 5725 5724 5723 5723 5721 5722 5719 5715 5717 5713 5708 5710 5710 5711 5714 5713 5711 5708 5707 5712 5716 5716 5718 5721 5719 5717 5716 5715 5714 5712 5708 5705 5704 5703 5702 5703 5706 5709 5711 5713 5713 5710 5706 5704 5705 5705 5705 5705 5705 5704 5703 5702 5701 5700 5699 5698 5698 5698 5698 5697 5697 5696 5696 5696 5696 5696 5696 5696 5696 5695 5695 5694 5694 5693 5692 5692 5692 5692 5692
5716 5721 5728 5721 5717 5721 5721 5719 5718 5715 5714 5714 5715 5712 5709 5713 5710 5703 5701 5702 5702 5700 5700 5701 5697 5698 5707 5710 5710 5712 5712 5712 5710 5708 5709 5708 5706 5704 5701 5700 5697 5696 5695 5694 5696 5698 5699 5702 5704 5703 5699 5697 5697 5696 5697 5696 5696 5696 5695 5695 5694 5694 5694 5693 5692 5692 5691 5690 5690 5690 5690 5689 5689 5689 5689 5689 5688 5687 5687 5686 5686 5685 5685 5685 5685 5684
5707 5711 5720 5715 5709 5712 5712 5711 5711 5708 5706 5706 5706 5705 5705 5706 5703 5696 5690 5692 5693 5685 5686 5694 5690 5691 5698 5699 5704 5708 5706 5706 5704 5703 5703 5699 5697 5696 5695 5694 5693 5691 5689 5687 5687 5688 5688 5689 5690 5693 5694 5692 5689 5688 5688 5688 5688 5687 5687 5687 5687 5688 5688 5687 5686 5686 5684 5683 5683 5683 5682 5682 5682 5682 5682 5681 5680 5680 5680 5679 5678 5678 5678 5678 5677 5677
5699 5699 5710 5711 5703 5702 5704 5703 5702 5701 5698 5696 5697 5700 5700 5695 5692 5690 5682 5680 5681 5672 5672 5682 5683 5686 5690 5689 5696 5701 5700 5701 5699 5696 5695 5692 5691 5690 5688 5688 5687 5684 5683 5682 5681 5680 5680 5681 5679 5679 5682 5684 5683 5681 5681 5681 5680 5680 5679 5679 5680 5680 5680 5679 5678 5678 5677 5676 5676 5675 5675 5675 5675 5674 5674 5673 5673 5672 5673 5672 5671 5670 5670 5670 5669 5669
5691 5687 5696 5705 5699 5692 5695 5696 5694 5693 5691 5687 5688 5691 5690 5684 5682 5683 5675 5671 5671 5664 5661 5667 5671 5676 5682 5686 5691 5692 5691 5692 5689 5687 5686 5684 5684 5683 5681 5681 5679 5677 5676 5675 5675 5673 5671 5671 5671 5671 5671 5673 5675 5675 5674 5673 5672 5672 5671 5672 5673 5672 5671 5670 5670 5670 5670 5669 5669 5668 5668 5668 5668 5667 5667 5666 5666 5665 5666 5665 5663 5663 5663 5662 5662 5662
5683 5675 5677 5693 5695 5685 5685 5688 5686 5684 5683 5679 5678 5678 5678 5677 5675 5672 5668 5664 5662 5657 5653 5654 5655 5660 5673 5684 5689 5686 5682 5681 5679 5678 5677 5676 5676 5675 5673 5671 5669 5668 5668 5667 5667 5667 5665 5662 5662 5663 5662 5663 5665 5666 5666 5665 5665 5664 5663 5663 5664 5663 5662 5663 5663 5662 5662 5662 5662 5661 5661 5661 5661 5660 5660 5659 5658 5658 5658 5657 5656 5656 5655 5655 5655 5654
5673 5666 5662 5674 5682 5676 5676 5680 5678 5676 5675 5671 5669 5668 5668 5668 5666 5661 5656 5657 5657 5649 5645 5643 5639 5643 5662 5677 5682 5680 5675 5672 5671 5669 5668 5668 5668 5665 5664 5662 5660 5660 5660 5658 5657 5657 5657 5653 5651 5652 5653 5653 5655 5655 5655 5655 5656 5657 5655 5653 5653 5653 5654 5655 5654 5654 5654 5654 5654 5654 5654 5654 5653 5652 5652 5651 5651 5651 5651 5650 5649 5648 5648 5647 5647 5646
5664 5659 5654 5658 5664 5666 5670 5673 5670 5666 5666 5664 5659 5658 5659 5659 5657 5651 5644 5647 5650 5641 5635 5633 5624 5626 5648 5667 5673 5673 5668 5665 5664 5661 5660 5660 5658 5656 5656 5654 5653 5652 5652 5650 5648 5648 5647 5644 5641 5642 5642 5642 5643 5644 5644 5644 5645 5646 5647 5646 5643 5642 5644 5646 5645 5645 5644 5644 5645 5646 5646 5645 5644 5644 5644 5643 5643 5643 5643 5642 5641 5640 5639 5639 5638 5637
5657 5652 5647 5648 5651 5655 5660 5665 5663 5659 5658 5655 5650 5649 5651 5650 5649 5644 5635 5638 5640 5631 5627 5625 5612 5611 5635 5656 5663 5663 5661 5658 5656 5653 5652 5651 5649 5648 5647 5646 5644 5643 5642 5641 5640 5640 5638 5634 5631 5631 5632 5632 5632 5632 5633 5634 5635 5636 5637 5638 5636 5634 5635 5636 5636 5635 5634 5634 5635 5637 5637 5637 5637 5636 5636 5635 5635 5635 5634 5634 5633 5632 5631 5631 5630 5629
5647 5641 5638 5638 5639 5641 5646 5652 5654 5652 5649 5644 5642 5646 5645 5641 5641 5637 5630 5630 5627 5619 5620 5616 5601 5602 5625 5644 5649 5650 5651 5649 5647 5647 5645 5643 5641 5640 5637 5636 5635 5632 5631 5630 5629 5628 5626 5623 5621 5621 5623 5624 5624 5624 5623 5623 5625 5625 5626 5628 5628 5627 5627 5626 5626 5625 5625 5625 5626 5627 5627 5628 5629 5628 5627 5628 5627 5626 5626 5625 5624 5624 5623 5622 5621 5621
5635 5632 5630 5627 5626 5627 5632 5637 5641 5644 5642 5634 5634 5640 5637 5633 5633 5627 5623 5622 5612 5609 5614 5606 5591 5598 5619 5630 5633 5636 5639 5638 5640 5641 5638 5634 5633 5631 5628 5625 5623 5619 5617 5616 5616 5615 5614 5613 5613 5614 5615 5615 5615 5615 5614 5613 5614 5614 5615 5617 5617 5618 5618 5616 5615 5615 5615 5616 5617 5617 5618 5619 5619 5619 5618 5617 5617 5617 5616 5615 5615 5615 5614 5614 5613 5613
5624 5623 5622 5618 5615 5616 5619 5625 5630 5633 5630 5624 5624 5627 5627 5626 5624 5618 5616 5610 5599 5601 5606 5595 5586 5596 5611 5618 5620 5624 5627 5627 5629 5631 5629 5627 5623 5619 5616 5611 5607 5604 5603 5604 5605 5605 5606 5606 5606 5607 5607 5607 5606 5605 5605 5605 5604 5604 5604 5605 5607 5608 5608 5607 5605 5605 5606 5607 5608 5609 5610 5610 5609 5609 5608 5606 5606 5607 5606 5605 5605 5605 5605 5605 5604 5604
5613 5611 5613 5610 5607 5607 5609 5614 5621 5620 5614 5611 5612 5614 5614 5614 5613 5610 5604 5597 5594 5593 5589 5586 5587 5588 5594 5604 5609 5614 5618 5617 5619 5620 5620 5618 5612 5603 5599 5596 5593 5592 5594 5596 5597 5598 5598 5598 5598 5599 5599 5598 5597 5596 5596 5596 5596 5595 5595 5596 5598 5599 5599 5599 5597 5597 5598 5599 5599 5601 5602 5602 5601 5599 5598 5597 5597 5597 5596 5596 5596 5596 5595 5595 5594 5594
5603 5599 5603 5603 5598 5600 5602 5603 5609 5609 5602 5601 5602 5602 5603 5602 5601 5599 5590 5587 5592 5584 5570 5578 5587 5578 5578 5589 5594 5600 5606 5606 5607 5607 5604 5601 5596 5589 5586 5586 5587 5588 5588 5589 5590 5590 5590 5589 5590 5591 5590 5589 5588 5588 5587 5587 5587 5587 5587 5588 5590 5589 5590 5589 5587 5587 5589 5590 5591 5593 5594 5592 5591 5590 5589 5589 5589 5589 5588 5587 5587 5586 5586 5585 5585 5585
5594 5588 5594 5594 5588 5590 5593 5592 5596 5596 5591 5590 5591 5591 5593 5592 5589 5586 5581 5581 5584 5571 5561 5572 5577 5567 5568 5576 5577 5582 5588 5589 5589 5590 5587 5585 5583 5581 5580 5581 5581 5580 5580 5581 5581 5581 5580 5580 5581 5581 5581 5580 5579 5578 5578 5578 5577 5578 5577 5578 5578 5578 5578 5577 5576 5577 5579 5580 5582 5584 5583 5581 5580 5580 5580 5580 5580 5580 5579 5579 5578 5577 5577 5577 5577 5576
5585 5579 5584 5585 5578 5578 5580 5581 5583 5583 5579 5579 5579 5579 5580 5579 5578 5576 5572 5572 5571 5561 5559 5564 5560 5556 5562 5564 5563 5565 5568 5570 5573 5575 5575 5574 5572 5570 5570 5570 5569 5567 5566 5568 5569 5569 5569 5568 5568 5568 5569 5569 5568 5568 5568 5567 5567 5567 5567 5567 5566 5566 5565 5563 5564 5567 5569 5570 5572 5573 5571 5570 5570 5570 5570 5569 5569 5569 5569 5569 5568 5568 5568 5568 5568 5566
5578 5572 5574 5575 5567 5564 5569 5571 5570 5570 5567 5565 5566 5567 5568 5567 5566 5564 5562 5562 5559 5553 5553 5554 5547 5545 5549 5549 5550 5553 5554 5557 5559 5561 5562 5561 5559 5558 5558 5558 5557 5555 5553 5553 5554 5555 5555 5554 5555 5555 5555 5554 5555 5555 5556 5556 5556 5556 5556 5556 5555 5554 5553 5551 5553 5557 5558 5560 5562 5561 5560 5560 5560 5559 5559 5558 5558 5558 5558 5557 5557 5557 5557 5557 5557 5556
5572 5565 5566 5566 5555 5552 5561 5562 5558 5558 5555 5551 5553 5558 5561 5559 5556 5553 5553 5553 5549 5543 5543 5543 5539 5534 5532 5534 5539 5544 5545 5546 5545 5546 5548 5547 5545 5546 5545 5545 5545 5543 5541 5539 5538 5540 5541 5541 5542 5542 5543 5542 5542 5542 5542 5543 5545 5545 5545 5545 5545 5543 5541 5540 5541 5543 5546 5548 5549 5549 5548 5548 5548 5548 5548 5548 5548 5548 5547 5546 5546 5546 5546 5546 5546 5545
5565 5558 5558 5557 5546 5542 5553 5555 5550 5548 5540 5537 5547 5554 5552 5550 5547 5545 5544 5542 5539 5536 5532 5529 5527 5524 5520 5521 5527 5531 5532 5533 5531 5530 5532 5532 5531 5532 5532 5532 5532 5531 5529 5527 5525 5526 5527 5528 5529 5529 5530 5531 5531 5530 5529 5529 5531 5533 5533 5533 5533 5532 5530 5528 5528 5529 5531 5534 5535 5535 5536 5535 5535 5536 5536 5536 5536 5537 5536 5536 5536 5537 5537 5537 5536 5534
5556 5551 5549 5548 5538 5532 5542 5546 5540 5531 5522 5528 5544 5547 5540 5539 5539 5534 5532 5530 5528 5527 5521 5516 5513 5512 5511 5513 5516 5517 5520 5521 5518 5516 5519 5520 5519 5519 5520 5519 5519 5519 5519 5517 5515 5515 5515 5517 5518 5518 5518 5519 5519 5518 5518 5517 5519 5521 5521 5520 5521 5521 5519 5518 5517 5516 5517 5519 5520 5521 5522 5522 5522 5523 5524 5523 5524 5524 5525 5525 5526 5527 5528 5527 5525 5524
5545 5543 5539 5538 5531 5524 5531 5535 5521 5510 5516 5528 5532 5530 5527 5528 5527 5522 5518 5516 5516 5514 5510 5505 5502 5499 5498 5501 5504 5505 5508 5508 5506 5505 5506 5506 5506 5507 5508 5508 5508 5508 5509 5508 5507 5506 5505 5506 5507 5508 5508 5508 5507 5507 5506 5506 5506 5508 5509 5509 5509 5509 5508 5507 5506 5505 5505 5505 5506 5507 5509 5509 5510 5511 5512 5512 5512 5513 5513 5514 5515 5516 5516 5515 5514 5514
5532 5531 5527 5526 5523 5517 5519 5519 5505 5501 5515 5522 5515 5513 5516 5515 5514 5512 5506 5502 5501 5500 5498 5495 5492 5488 5486 5486 5488 5490 5491 5493 5494 5492 5491 5491 5491 5492 5494 5495 5496 5495 5495 5495 5495 5495 5495 5495 5495 5497 5497 5497 5496 5495 5495 5494 5494 5495 5497 5497 5497 5498 5498 5497 5496 5495 5495 5495 5494 5495 5497 5498 5498 5499 5500 5501 5502 5503 5503 5504 5505 5505 5504 5504 5504 5503
5519 5518 5515 5513 5512 5509 5507 5504 5497 5496 5502 5504 5502 5503 5504 5503 5502 5501 5495 5488 5486 5486 5485 5483 5480 5477 5475 5473 5473 5474 5475 5477 5480 5479 5476 5476 5476 5475 5476 5478 5479 5480 5480 5479 5479 5480 5480 5480 5481 5483 5483 5484 5483 5482 5482 5482 5482 5483 5484 5484 5485 5486 5486 5487 5486 5485 5485 5485 5485 5485 5486 5487 5487 5487 5488 5489 5490 5491 5492 5492 5492 5493 5493 5493 5493 5493
5507 5505 5505 5501 5498 5500 5498 5492 5489 5487 5486 5488 5493 5493 5492 5492 5492 5489 5483 5478 5476 5475 5474 5472 5468 5466 5465 5463 5462 5462 5462 5463 5467 5468 5465 5463 5462 5461 5461 5462 5463 5463 5464 5463 5463 5464 5465 5464 5465 5467 5467 5468 5469 5468 5468 5468 5468 5470 5472 5472 5472 5472 5472 5473 5474 5473 5474 5474 5474 5475 5475 5476 5476 5476 5476 5477 5477 5477 5478 5479 5479 5480 5481 5481 5482 5482
5497 5495 5494 5489 5485 5488 5488 5482 5479 5478 5475 5477 5482 5482 5481 5482 5481 5478 5472 5468 5468 5468 5464 5460 5458 5456 5455 5454 5453 5453 5452 5452 5455 5459 5457 5453 5452 5451 5450 5451 5450 5449 5448 5448 5448 5449 5451 5451 5451 5453 5453 5453 5454 5455 5454 5455 5456 5457 5459 5460 5460 5460 5459 5460 5461 5462 5462 5462 5463 5463 5464 5464 5464 5465 5465 5465 5466 5466 5467 5467 5468 5469 5469 5470 5471 5471
5489 5486 5483 5478 5475 5478 5477 5471 5469 5469 5468 5468 5471 5472 5472 5471 5470 5467 5460 5456 5458 5458 5451 5447 5447 5445 5444 5444 5443 5443 5442 5441 5443 5448 5447 5443 5442 5442 5441 5441 5441 5439 5437 5436 5435 5436 5438 5439 5440 5441 5442 5441 5442 5442 5442 5442 5444 5445 5446 5448 5448 5448 5447 5448 5449 5450 5450 5451 5451 5451 5452 5452 5452 5453 5453 5453 5454 5454 5455 5455 5456 5457 5457 5458 5458 5459
5479 5477 5473 5469 5468 5468 5466 5460 5457 5457 5459 5461 5461 5461 5461 5460 5459 5455 5448 5444 5446 5444 5437 5433 5433 5432 5432 5431 5430 5430 5430 5428 5429 5433 5436 5433 5431 5432 5432 5432 5431 5431 5429 5427 5426 5426 5427 5429 5429 5429 5430 5429 5429 5429 5429 5429 5432 5433 5434 5436 5436 5435 5435 5436 5437 5438 5438 5439 5440 5440 5440 5440 5441 5441 5442 5442 5443 5443 5443 5444 5445 5445 5445 5446 5447 5448
5468 5466 5463 5461 5460 5458 5455 5451 5447 5446 5450 5453 5452 5451 5450 5447 5445 5443 5437 5433 5431 5429 5425 5422 5419 5419 5418 5417 5416 5416 5415 5415 5414 5415 5419 5420 5419 5419 5420 5419 5418 5418 5418 5417 5416 5416 5415 5417 5418 5417 5418 5417 5415 5416 5416 5416 5419 5422 5423 5424 5424 5423 5423 5425 5425 5426 5427 5427 5427 5428 5428 5429 5430 5430 5430 5431 5431 5432 5432 5433 5434 5434 5434 5435 5436 5438
5456 5453 5451 5451 5450 5446 5443 5440 5437 5437 5443 5444 5441 5441 5440 5434 5429 5428 5425 5420 5417 5415 5413 5411 5409 5407 5404 5402 5402 5400 5399 5400 5400 5399 5401 5403 5404 5403 5404 5404 5403 5402 5403 5402 5402 5401 5401 5402 5404 5404 5406 5405 5403 5402 5402 5401 5404 5407 5409 5411 5411 5410 5411 5412 5412 5413 5415 5416 5416 5416 5416 5418 5419 5420 5420 5420 5420 5420 5421 5422 5424 5424 5423 5424 5425 5427
5445 5442 5439 5438 5437 5433 5428 5428 5430 5430 5432 5433 5429 5427 5426 5422 5418 5415 5410 5407 5405 5403 5400 5399 5398 5396 5392 5388 5387 5386 5385 5385 5385 5384 5385 5386 5387 5388 5388 5389 5388 5386 5386 5386 5386 5385 5385 5386 5388 5391 5393 5393 5392 5390 5389 5388 5388 5392 5394 5395 5396 5397 5398 5399 5399 5400 5403 5404 5404 5404 5405 5406 5408 5410 5411 5411 5410 5409 5410 5411 5413 5414 5414 5413 5414 5416
5436 5435 5428 5423 5424 5422 5416 5418 5423 5421 5419 5420 5418 5414 5410 5409 5407 5403 5397 5395 5395 5392 5388 5387 5387 5386 5383 5377 5374 5373 5373 5372 5370 5369 5369 5369 5371 5373 5372 5372 5373 5371 5370 5370 5369 5369 5369 5370 5372 5374 5377 5380 5379 5378 5377 5376 5375 5377 5381 5381 5380 5382 5384 5385 5386 5388 5390 5391 5392 5393 5393 5395 5397 5399 5400 5400 5400 5400 5399 5400 5401 5403 5405 5404 5404 5405
5427 5426 5417 5412 5414 5413 5408 5411 5415 5409 5406 5408 5407 5403 5399 5396 5394 5391 5386 5384 5384 5381 5378 5375 5374 5374 5372 5367 5363 5360 5359 5358 5357 5355 5355 5354 5355 5357 5357 5356 5357 5356 5355 5354 5353 5351 5351 5352 5355 5357 5360 5365 5367 5365 5364 5365 5363 5363 5366 5367 5366 5366 5367 5370 5374 5377 5378 5379 5380 5381 5382 5384 5386 5387 5387 5388 5389 5389 5389 5390 5390 5392 5394 5395 5395 5395
5420 5416 5407 5405 5406 5402 5400 5405 5405 5397 5396 5398 5395 5392 5390 5386 5383 5380 5376 5373 5372 5370 5368 5365 5362 5361 5359 5356 5353 5349 5347 5346 5344 5342 5342 5341 5340 5342 5342 5341 5340 5340 5340 5339 5337 5335 5334 5335 5337 5339 5342 5348 5352 5352 5350 5352 5352 5351 5351 5352 5352 5351 5352 5356 5360 5363 5365 5366 5367 5368 5369 5371 5373 5374 5375 5376 5378 5379 5380 5380 5381 5382 5384 5385 5386 5387
5411 5405 5399 5400 5399 5392 5390 5395 5395 5388 5387 5387 5383 5381 5381 5377 5374 5371 5367 5364 5362 5360 5358 5356 5352 5349 5347 5345 5342 5338 5336 5335 5332 5329 5328 5329 5328 5328 5327 5325 5324 5323 5323 5323 5322 5320 5319 5319 5320 5321 5323 5328 5334 5335 5335 5337 5339 5340 5338 5337 5337 5336 5337 5341 5345 5347 5350 5353 5353 5354 5356 5358 5359 5361 5363 5364 5366 5368 5370 5370 5371 5372 5374 5375 5376 5377
5401 5396 5394 5392 5387 5382 5382 5384 5383 5378 5376 5376 5375 5373 5371 5367 5364 5362 5359 5356 5353 5350 5348 5346 5342 5339 5336 5334 5331 5327 5325 5325 5322 5317 5315 5316 5316 5315 5312 5311 5309 5308 5308 5307 5306 5305 5304 5304 5304 5304 5305 5309 5313 5315 5317 5320 5323 5325 5324 5322 5320 5320 5321 5324 5328 5330 5335 5339 5340 5341 5343 5345 5346 5348 5350 5352 5354 5356 5358 5360 5360 5361 5363 5364 5365 5366
5390 5388 5389 5382 5373 5372 5375 5375 5373 5367 5363 5365 5366 5364 5361 5358 5354 5352 5351 5347 5344 5341 5338 5335 5333 5331 5328 5325 5321 5317 5315 5314 5312 5306 5303 5303 5303 5301 5299 5297 5295 5294 5294 5292 5290 5289 5288 5288 5287 5287 5289 5293 5294 5294 5297 5301 5305 5308 5307 5303 5302 5303 5304 5306 5310 5314 5320 5325 5326 5328 5330 5331 5333 5336 5337 5339 5342 5344 5346 5348 5349 5350 5351 5352 5353 5355
5381 5378 5378 5371 5363 5364 5366 5366 5364 5357 5352 5354 5356 5354 5351 5348 5345 5343 5341 5338 5335 5332 5329 5326 5324 5322 5320 5318 5314 5309 5305 5303 5301 5296 5292 5292 5291 5289 5286 5283 5281 5281 5280 5278 5275 5274 5273 5273 5272 5271 5272 5275 5276 5276 5278 5281 5286 5290 5288 5284 5284 5286 5287 5289 5293 5298 5305 5310 5312 5314 5315 5317 5320 5323 5324 5327 5330 5331 5333 5335 5337 5338 5340 5341 5342 5343